Lid_Strength_Index
-1 -1 -2 -2 -1 -1 -1 -1 -1 -2 -1 1 -0 -1 1 2 3 5 7 5 3 1 2 4 4 5 5 7 6 6 10 12 12 11 11 8 8 6 5 6 5 5 5 3 2
-1 -1 -2 -2 -1 -1 -1 -1 -1 -1 -0 0 -0 0 0 3 5 7 5 2 1 1 4 5 6 5 8 8 8 7 10 11 11 11 10 8 7 7 7 7 7 6 4 3 2
-1 -1 -2 -1 -1 -1 -1 -1 -1 -1 0 1 0 -0 -0 3 8 8 3 2 1 2 3 4 5 6 9 8 9 9 10 10 12 11 8 8 7 6 7 9 6 7 6 4 3
-1 -1 -2 -1 -1 -1 -1 -1 -1 -0 0 1 -0 -1 -1 4 13 7 3 3 2 2 4 5 6 8 9 10 10 12 11 11 11 11 9 8 8 8 6 7 6 4 4 4 4
-0 -1 -1 -1 -1 -1 -1 -1 -0 0 1 1 -0 -1 1 6 8 4 4 4 4 4 5 6 7 8 11 11 11 12 12 11 11 10 10 9 9 9 8 7 5 4 4 4 4
-0 -1 -1 -1 -2 -1 -1 -1 0 0 0 -0 -0 -0 4 9 3 3 5 5 5 5 6 5 6 8 10 12 11 12 12 11 11 11 11 10 10 10 9 6 5 5 5 4 4
0 0 0 -1 -2 -1 -1 -1 -0 -0 -0 -0 0 2 4 6 3 3 3 5 5 5 6 6 5 8 10 12 11 11 13 11 11 11 12 11 12 12 9 6 6 6 5 4 4
1 1 1 -0 -1 -1 -1 0 0 -0 -0 -0 0 2 7 2 2 3 3 5 4 5 5 6 6 8 9 10 10 11 10 12 11 11 12 11 11 12 9 6 6 6 5 5 4
1 1 1 1 0 -1 -0 0 0 0 -0 0 3 4 8 2 5 5 5 7 7 7 6 6 7 9 10 11 12 12 14 12 12 11 12 12 11 11 10 8 8 6 5 5 4
2 2 1 2 1 1 1 -0 -0 1 2 2 4 7 6 9 6 6 6 6 8 8 9 8 9 11 11 12 17 15 14 13 12 11 12 12 11 10 9 9 9 7 6 5 5
3 2 2 2 2 2 3 4 4 6 6 8 8 8 8 7 6 7 7 8 8 10 12 11 12 13 12 11 11 10 12 13 12 11 12 12 12 10 9 9 8 8 7 6 4
3 3 2 3 3 4 4 8 9 8 9 7 7 8 7 8 9 9 7 10 10 13 11 12 14 12 11 10 10 12 13 14 13 12 12 12 13 12 11 10 9 8 8 7 6
4 3 3 3 4 5 7 8 7 7 10 9 8 9 8 8 10 10 9 10 11 13 13 13 13 11 12 11 12 13 12 14 13 13 13 14 14 14 12 12 10 9 9 8 8
4 4 4 3 5 7 8 8 7 7 12 13 11 9 8 8 10 8 8 9 11 13 13 13 12 12 12 13 12 15 12 13 14 15 16 14 16 14 13 12 11 11 10 9 9
4 4 4 4 6 7 8 8 7 8 18 12 11 7 9 10 10 9 8 9 13 14 13 14 13 13 13 13 13 14 13 14 14 15 15 15 15 14 13 13 12 11 10 9 9
5 4 5 6 6 8 8 7 8 14 19 14 11 12 12 11 11 10 10 9 11 12 12 13 12 12 13 13 12 13 14 15 15 16 18 17 16 15 13 13 12 11 11 10 9
6 5 6 7 8 8 8 8 14 16 14 15 14 13 13 14 13 12 12 12 13 15 16 13 13 12 12 13 12 13 15 18 18 18 20 16 16 14 12 11 11 10 10 9 8
6 8 8 8 8 7 7 10 17 18 15 12 13 13 15 14 14 13 13 14 13 12 14 15 17 13 12 12 13 14 14 17 22 20 17 15 17 14 11 11 10 10 10 9 8
8 9 8 8 8 7 8 14 15 16 13 13 13 14 15 13 14 14 15 14 14 13 15 16 16 13 12 11 12 13 14 13 16 18 17 16 14 12 11 11 11 10 9 9 8
10 10 10 9 8 6 10 14 14 13 11 12 15 15 16 14 15 15 16 14 15 13 13 14 17 14 13 11 10 11 11 15 14 19 21 18 16 15 13 12 11 10 9 9 8
11 13 10 10 7 8 13 13 13 11 10 12 13 14 14 14 14 15 15 13 12 13 12 13 14 16 13 14 14 13 14 14 14 15 19 20 17 12 12 12 11 10 10 9 9
12 14 11 8 12 16 14 15 12 11 10 10 11 11 12 12 14 14 14 13 11 11 12 12 13 15 15 13 13 12 13 13 16 18 16 16 16 11 10 10 10 10 10 9 9
13 13 11 9 14 15 16 15 13 12 11 11 11 11 11 12 14 12 12 10 10 11 12 11 14 16 16 14 13 13 13 11 12 12 15 17 15 10 9 9 9 9 8 8 8
14 16 14 14 16 15 16 16 15 13 12 11 11 10 11 12 11 13 12 10 9 9 9 9 13 15 16 15 13 14 13 12 12 14 14 13 13 10 8 9 8 8 7 7 7
16 15 15 17 16 15 14 15 16 16 14 12 12 11 12 15 14 13 11 10 10 9 10 10 13 14 13 13 13 13 13 12 13 12 15 13 13 11 9 9 8 8 8 9 8
18 17 18 19 17 15 14 16 15 15 14 14 15 11 12 14 12 14 12 11 11 11 11 11 14 13 15 13 13 14 12 12 12 12 12 12 13 9 8 8 9 9 9 10 10
16 16 14 17 17 15 15 15 15 14 14 13 12 12 14 12 12 11 11 11 11 11 13 12 14 15 17 17 17 17 15 13 13 12 12 15 12 10 11 11 10 10 10 10 10